GW5365 Weather Reports


Display with metric or nautical units.
time (UTC)temp
F
wind
direction
speed
MPH
gust
MPH
rain 1hr
in
rain 24hr
in
rain mn
in
humidity
%
barometer
mb
20260503054640 59 292 10.0 10.0 0.00 0.00 0.00 82 1015.3
20260503053641 60 248 8.0 8.0 0.00 0.00 0.00 82 1015.0
20260503052641 60 270 10.0 10.0 0.00 0.00 0.00 82 1015.0
20260503051640 60 292 8.0 8.0 0.00 0.00 0.00 82 1014.9
20260503050640 60 270 10.0 10.0 0.00 0.00 0.00 84 1014.9
20260503045641 61 292 8.0 8.0 0.00 0.00 0.00 85 1014.7
20260503044640 61 270 2.0 2.0 0.00 0.00 0.00 84 1014.9
20260503043639 60 315 5.0 5.0 0.00 0.00 0.00 85 1015.0
20260503041641 60 270 2.0 2.0 0.00 0.00 0.00 86 1015.2
20260503040640 60 270 6.0 6.0 0.00 0.00 0.00 86 1015.1
20260503035640 61 315 5.0 5.0 0.00 0.00 0.00 85 1014.9
20260503034641 61 292 10.0 10.0 0.00 0.00 0.00 85 1015.1
20260503033640 61 315 5.0 5.0 0.00 0.00 0.00 85 1015.3
20260503032640 61 22 7.0 7.0 0.00 0.00 0.00 85 1015.4
20260503031640 61 270 5.0 5.0 0.00 0.00 0.00 84 1015.3
20260503025642 62 22 5.0 5.0 0.00 0.00 0.00 83 1015.4
20260503023641 62 248 7.0 7.0 0.00 0.00 0.00 82 1015.4
20260503022641 62 270 11.0 11.0 0.00 0.00 0.00 82 1015.3
20260503021641 63 248 10.0 10.0 0.00 0.00 0.00 81 1015.4
20260503020640 63 248 5.0 5.0 0.00 0.00 0.00 80 1015.3
20260503015640 64 270 4.0 4.0 0.00 0.00 0.00 79 1015.3
20260503013640 64 292 9.0 9.0 0.00 0.00 0.00 74 1015.5
20260503012640 64 270 7.0 7.0 0.00 0.00 0.00 74 1015.5
20260503011640 64 248 5.0 5.0 0.00 0.00 0.00 74 1015.5
20260503010640 64 270 12.0 12.0 0.00 0.00 0.00 76 1015.4
20260503005640 64 270 5.0 5.0 0.00 0.00 0.00 77 1015.6
20260503004641 65 248 6.0 6.0 0.00 0.00 0.00 74 1015.7
20260503003640 65 248 2.0 2.0 0.00 0.00 0.00 72 1015.9
20260503002640 66 270 2.0 2.0 0.00 0.00 0.00 71 1015.9
20260503000641 65 270 5.0 5.0 0.00 0.00 0.00 72 1016.0
20260502235640 66 248 7.0 7.0 0.00 0.00 0.00 72 1016.1
20260502231641 66 135 1.0 1.0 0.00 0.00 0.00 69 1016.4
20260502230641 66 135 3.0 3.0 0.00 0.00 0.00 70 1016.5
20260502225641 66 135 3.0 3.0 0.00 0.00 0.00 68 1016.5
20260502224641 66 135 1.0 1.0 0.00 0.00 0.00 68 1016.4
20260502223640 66 135 1.0 1.0 0.00 0.00 0.00 68 1016.3
20260502222640 67 202 2.0 2.0 0.00 0.00 0.00 68 1016.3
20260502221640 67 248 5.0 5.0 0.00 0.00 0.00 67 1016.2
20260502220642 67 248 2.0 2.0 0.00 0.00 0.00 63 1016.4
20260502215640 67 248 4.0 4.0 0.00 0.00 0.00 63 1016.5
20260502213639 67 292 7.0 7.0 0.00 0.00 0.00 65 1016.5
20260502212640 68 248 9.0 9.0 0.00 0.00 0.00 64 1016.6
20260502211641 68 248 8.0 8.0 0.00 0.00 0.00 63 1016.4
20260502210641 68 248 7.0 7.0 0.00 0.00 0.00 62 1016.4
20260502205640 68 270 9.0 9.0 0.00 0.00 0.00 62 1016.3
20260502204640 68 270 8.0 8.0 0.00 0.00 0.00 62 1016.2
20260502203642 68 270 7.0 7.0 0.00 0.00 0.00 61 1016.1
20260502202641 68 270 8.0 8.0 0.00 0.00 0.00 61 1016.1
20260502201641 68 270 8.0 8.0 0.00 0.00 0.00 61 1016.1
20260502200640 68 270 7.0 7.0 0.00 0.00 0.00 61 1016.0
20260502195641 69 292 7.0 7.0 0.00 0.00 0.00 63 1015.8
20260502194641 69 292 7.0 7.0 0.00 0.00 0.00 62 1015.7
20260502193642 69 292 10.0 10.0 0.00 0.00 0.00 61 1015.5
20260502192641 69 270 10.0 10.0 0.00 0.00 0.00 60 1015.6
20260502190640 70 270 5.0 5.0 0.00 0.00 0.00 60 1015.3
20260502184640 70 292 6.0 6.0 0.00 0.00 0.00 59 1015.4
20260502182640 71 292 6.0 6.0 0.00 0.00 0.00 58 1015.4
20260502180641 72 270 8.0 8.0 0.00 0.00 0.00 59 1015.4
20260502163641 74 112 0.0 0.0 0.00 0.00 0.00 56 1015.7
20260502162641 73 68 5.0 5.0 0.00 0.00 0.00 57 1015.7
20260502161641 74 338 4.0 4.0 0.00 0.00 0.00 57 1015.8
20260502160641 75 248 1.0 1.0 0.00 0.00 0.00 54 1015.8
20260502151641 72 248 4.0 4.0 0.00 0.00 0.00 57 1016.3
20260502150640 72 292 3.0 3.0 0.00 0.00 0.00 58 1016.4
20260502130640 72 270 5.0 5.0 0.00 0.00 0.00 59 1017.9
20260502122641 70 0 4.0 4.0 0.00 0.00 0.00 62 1018.1
20260502121640 70 45 5.0 5.0 0.00 0.00 0.00 60 1018.3
20260502120641 71 270 4.0 4.0 0.00 0.00 0.00 61 1018.5
20260502115642 71 270 5.0 5.0 0.00 0.00 0.00 60 1018.5
20260502114640 70 270 4.0 4.0 0.00 0.00 0.00 61 1018.6
20260502113640 70 270 5.0 5.0 0.00 0.00 0.00 62 1018.8
20260502112640 70 292 7.0 7.0 0.00 0.00 0.00 63 1018.8
20260502111640 71 292 7.0 7.0 0.00 0.00 0.00 61 1018.9
20260502110641 70 22 4.0 4.0 0.00 0.00 0.00 60 1018.9
20260502105640 69 270 6.0 6.0 0.00 0.00 0.00 61 1018.9
20260502104641 69 270 4.0 4.0 0.00 0.00 0.00 61 1018.9
20260502103641 69 45 5.0 5.0 0.00 0.00 0.00 61 1019.0
20260502102640 69 270 5.0 5.0 0.00 0.00 0.00 62 1019.1
20260502100640 70 270 0.0 0.0 0.00 0.00 0.00 59 1019.2
20260502090639 70 68 0.0 0.0 0.00 0.00 0.00 56 1019.1
20260502070640 64 158 4.0 4.0 0.00 0.00 0.00 68 1018.8
20260502065641 64 158 3.0 3.0 0.00 0.00 0.00 68 1018.9
20260502062641 62 158 2.0 2.0 0.00 0.00 0.00 71 1019.0
20260502061640 62 158 2.0 2.0 0.00 0.00 0.00 71 1019.0
20260502060640 62 158 2.0 2.0 0.00 0.00 0.00 72 1018.8
20260502055640 62 158 1.0 1.0 0.00 0.00 0.00 72 1018.7